When you browse on this site, cookies collect data to enhance your experience and personalize the content and advertising you see.
Visit our Privacy Policy to learn more. By continuing to use the site, you agree to this use of cookies and data.
  • In Sweden
  • List of Countries
  • For 7 days
  • Water Temperature
  • Weather Map
  • Weather Widgets
  • user-avatar
    Login

    Hourly Weather Lubango

    Today, 21 September, Saturday

    Time Temperature Precipitation Wind Pressure Humidity
    00:00 +15°C° 0 mm 1 mps 607 mmHg 55%
    01:00 +15°C° 0 mm 1 mps 607 mmHg 55%
    02:00 +15°C° 0 mm 1 mps 607 mmHg 52%
    03:00 +15°C° 0 mm 1 mps 607 mmHg 49%
    04:00 +15°C° 0 mm 1 mps 607 mmHg 45%
    05:00 +16°C° 0 mm 1 mps 608 mmHg 41%
    06:00 +18°C° 0 mm 1 mps 609 mmHg 37%
    07:00 +20°C° 0 mm 1 mps 610 mmHg 33%
    08:00 +23°C° 0 mm 1 mps 611 mmHg 27%
    09:00 +26°C° 0 mm 2 mps 612 mmHg 20%
    10:00 +29°C° 0 mm 2 mps 613 mmHg 14%
    11:00 +30°C° 0 mm 3 mps 612 mmHg 14%
    12:00 +31°C° 0 mm 3 mps 612 mmHg 14%
    13:00 +33°C° 0 mm 3 mps 612 mmHg 13%
    14:00 +31°C° 0 mm 3 mps 611 mmHg 17%
    15:00 +30°C° 0 mm 4 mps 610 mmHg 20%
    16:00 +29°C° 0 mm 4 mps 610 mmHg 23%
    17:00 +25°C° 0 mm 3 mps 609 mmHg 35%
    18:00 +20°C° 0 mm 2 mps 608 mmHg 47%
    19:00 +18°C° 0 mm 1 mps 607 mmHg 59%
    20:00 +16°C° 0 mm 1 mps 607 mmHg 58%
    21:00 +16°C° 0 mm 1 mps 608 mmHg 56%
    22:00 +16°C° 0 mm 1 mps 608 mmHg 54%
    23:00 +16°C° 0 mm 1 mps 608 mmHg 51%

    Tomorrow, 22 September, Sunday

    Time Temperature Precipitation Wind Pressure Humidity
    00:00 +15°C° 0 mm 1 mps 608 mmHg 48%
    01:00 +15°C° 0 mm 1 mps 607 mmHg 45%
    02:00 +15°C° 0 mm 1 mps 607 mmHg 43%
    03:00 +15°C° 0 mm 1 mps 607 mmHg 40%
    04:00 +15°C° 0 mm 1 mps 607 mmHg 38%
    05:00 +16°C° 0 mm 1 mps 608 mmHg 34%
    06:00 +18°C° 0 mm 2 mps 609 mmHg 30%
    07:00 +19°C° 0 mm 2 mps 610 mmHg 26%
    08:00 +23°C° 0 mm 2 mps 611 mmHg 23%
    09:00 +26°C° 0 mm 2 mps 611 mmHg 19%
    10:00 +29°C° 0 mm 3 mps 612 mmHg 15%
    11:00 +30°C° 0 mm 3 mps 612 mmHg 14%
    12:00 +31°C° 0 mm 3 mps 612 mmHg 12%
    13:00 +33°C° 0 mm 3 mps 612 mmHg 11%
    14:00 +31°C° 0 mm 3 mps 611 mmHg 15%
    15:00 +30°C° 0 mm 4 mps 610 mmHg 19%
    16:00 +28°C° 0 mm 4 mps 609 mmHg 22%
    17:00 +25°C° 0 mm 3 mps 608 mmHg 34%
    18:00 +20°C° 0 mm 2 mps 608 mmHg 46%
    19:00 +16°C° 0 mm 1 mps 607 mmHg 58%
    20:00 +16°C° 0 mm 1 mps 607 mmHg 58%
    21:00 +15°C° 0 mm 1 mps 607 mmHg 58%
    22:00 +15°C° 0 mm 1 mps 607 mmHg 58%
    23:00 +15°C° 0 mm 1 mps 607 mmHg 52%

    Day after tomorrow, 23 September, Monday

    Time Temperature Precipitation Wind Pressure Humidity
    00:00 +15°C° 0 mm 1 mps 607 mmHg 47%
    01:00 +15°C° 0 mm 2 mps 607 mmHg 41%
    02:00 +15°C° 0 mm 2 mps 607 mmHg 40%
    03:00 +15°C° 0 mm 2 mps 607 mmHg 39%
    04:00 +16°C° 0 mm 2 mps 607 mmHg 37%
    05:00 +16°C° 0 mm 2 mps 608 mmHg 35%
    06:00 +17°C° 0 mm 2 mps 608 mmHg 33%
    07:00 +18°C° 0 mm 3 mps 609 mmHg 31%
    08:00 +21°C° 0 mm 3 mps 610 mmHg 26%
    09:00 +26°C° 0 mm 3 mps 611 mmHg 20%
    10:00 +29°C° 0 mm 3 mps 612 mmHg 15%
    11:00 +30°C° 0 mm 3 mps 612 mmHg 14%
    12:00 +31°C° 0 mm 3 mps 611 mmHg 13%
    13:00 +34°C° 0 mm 4 mps 611 mmHg 12%
    14:00 +33°C° 0 mm 4 mps 611 mmHg 14%
    15:00 +32°C° 0 mm 4 mps 610 mmHg 16%
    16:00 +30°C° 0 mm 3 mps 610 mmHg 18%
    17:00 +26°C° 0 mm 3 mps 609 mmHg 31%
    18:00 +21°C° 0 mm 2 mps 608 mmHg 45%
    19:00 +18°C° 0 mm 1 mps 607 mmHg 58%
    20:00 +16°C° 0 mm 1 mps 607 mmHg 58%
    21:00 +16°C° 0 mm 1 mps 608 mmHg 59%
    22:00 +15°C° 0 mm 1 mps 608 mmHg 60%
    23:00 +16°C° 0 mm 1 mps 608 mmHg 57%

    24 September, Tuesday

    Time Temperature Precipitation Wind Pressure Humidity
    00:00 +18°C° 0 mm 1 mps 608 mmHg 53%
    01:00 +18°C° 0 mm 1 mps 608 mmHg 50%
    02:00 +18°C° 0 mm 1 mps 608 mmHg 50%
    03:00 +18°C° 0 mm 1 mps 608 mmHg 49%
    04:00 +18°C° 0 mm 1 mps 608 mmHg 49%
    05:00 +18°C° 0 mm 1 mps 608 mmHg 46%
    06:00 +19°C° 0 mm 1 mps 609 mmHg 44%
    07:00 +20°C° 0 mm 1 mps 610 mmHg 41%
    08:00 +23°C° 0 mm 2 mps 611 mmHg 35%
    09:00 +26°C° 0 mm 2 mps 612 mmHg 28%
    10:00 +29°C° 0 mm 3 mps 613 mmHg 22%
    11:00 +30°C° 0 mm 3 mps 612 mmHg 21%
    12:00 +30°C° 0 mm 3 mps 611 mmHg 20%
    13:00 +30°C° 0 mm 3 mps 611 mmHg 19%
    14:00 +31°C° 0 mm 3 mps 611 mmHg 18%
    15:00 +31°C° 0 mm 3 mps 610 mmHg 17%
    16:00 +31°C° 0 mm 3 mps 610 mmHg 17%
    17:00 +27°C° 0 mm 3 mps 609 mmHg 33%
    18:00 +21°C° 0 mm 2 mps 608 mmHg 50%
    19:00 +18°C° 0 mm 1 mps 607 mmHg 67%
    20:00 +16°C° 0 mm 1 mps 608 mmHg 68%
    21:00 +15°C° 0 mm 1 mps 608 mmHg 69%
    22:00 +14°C° 0 mm 0 mps 608 mmHg 70%
    23:00 +14°C° 0 mm 0 mps 608 mmHg 67%

    25 September, Wednesday

    Time Temperature Precipitation Wind Pressure Humidity
    00:00 +15°C° 0 mm 1 mps 608 mmHg 63%
    01:00 +15°C° 0 mm 1 mps 608 mmHg 59%
    02:00 +15°C° 0 mm 1 mps 607 mmHg 57%
    03:00 +14°C° 0 mm 1 mps 607 mmHg 56%
    04:00 +14°C° 0 mm 1 mps 607 mmHg 54%
    05:00 +16°C° 0 mm 1 mps 608 mmHg 48%
    06:00 +18°C° 0 mm 1 mps 609 mmHg 42%
    07:00 +20°C° 0 mm 1 mps 610 mmHg 35%
    08:00 +23°C° 0 mm 2 mps 611 mmHg 30%
    09:00 +27°C° 0 mm 3 mps 612 mmHg 24%
    10:00 +30°C° 0 mm 4 mps 613 mmHg 18%
    11:00 +32°C° 0 mm 4 mps 613 mmHg 17%
    12:00 +33°C° 0 mm 4 mps 612 mmHg 16%
    13:00 +34°C° 0 mm 4 mps 612 mmHg 15%
    14:00 +33°C° 0 mm 4 mps 612 mmHg 16%
    15:00 +33°C° 0 mm 4 mps 611 mmHg 18%
    16:00 +32°C° 0 mm 4 mps 610 mmHg 19%
    17:00 +26°C° 0 mm 3 mps 609 mmHg 36%
    18:00 +21°C° 0 mm 2 mps 608 mmHg 53%
    19:00 +16°C° 0 mm 1 mps 607 mmHg 69%
    20:00 +15°C° 0 mm 1 mps 607 mmHg 71%
    21:00 +14°C° 0 mm 0 mps 608 mmHg 73%
    22:00 +13°C° 0 mm 0 mps 608 mmHg 75%
    23:00 +13°C° 0 mm 0 mps 608 mmHg 72%

    26 September, Thursday

    Time Temperature Precipitation Wind Pressure Humidity
    00:00 +13°C° 0 mm 0 mps 608 mmHg 69%
    01:00 +13°C° 0 mm 0 mps 608 mmHg 66%
    02:00 +14°C° 0 mm 1 mps 607 mmHg 67%
    03:00 +14°C° 0 mm 1 mps 607 mmHg 68%
    04:00 +13°C° 0 mm 1 mps 607 mmHg 68%
    05:00 +15°C° 0 mm 1 mps 608 mmHg 60%
    06:00 +18°C° 0 mm 1 mps 609 mmHg 51%
    07:00 +19°C° 0 mm 1 mps 610 mmHg 43%
    08:00 +23°C° 0 mm 2 mps 611 mmHg 36%
    09:00 +26°C° 0 mm 3 mps 612 mmHg 29%
    10:00 +29°C° 0 mm 4 mps 613 mmHg 21%
    11:00 +30°C° 0 mm 4 mps 612 mmHg 20%
    12:00 +32°C° 0 mm 4 mps 612 mmHg 19%
    13:00 +33°C° 0 mm 3 mps 611 mmHg 18%
    14:00 +31°C° 0 mm 3 mps 611 mmHg 18%
    15:00 +31°C° 0 mm 3 mps 611 mmHg 18%
    16:00 +31°C° 0 mm 3 mps 610 mmHg 19%
    17:00 +27°C° 0 mm 2 mps 609 mmHg 34%
    18:00 +21°C° 0 mm 2 mps 608 mmHg 49%
    19:00 +17°C° 0 mm 2 mps 607 mmHg 64%
    20:00 +16°C° 0 mm 1 mps 608 mmHg 66%
    21:00 +16°C° 0 mm 1 mps 608 mmHg 68%
    22:00 +14°C° 0 mm 0 mps 608 mmHg 70%
    23:00 +14°C° 0 mm 0 mps 608 mmHg 69%
    Show more